Home   Weather   Township of Washington   Past weeks
Flag for USA

Past Weather in Township of Washington, Indiana, USA — Yesterday and Last 2 Weeks

Now
81 °F

Light rain. Partly sunny.


Feels Like: 87 °F
Forecast: 81 / 72 °F
Wind: 13 mph from South

Location: Huntingburg Airport

Current Time: Jul 16, 2019 at 2:44:46 pm

Latest Report: Jul 16, 2019 at 2:16 pm


Visibility: 10 mi

Pressure: 29.98 "Hg

Humidity: 89%

Dew Point: 77 °F

Location of Township of WashingtonLocation

Past Weather in Township of Washington — Graph

°F

Township of Washington Temperature Yesterday

Maximum temperature yesterday: 81 °F (at 10:56 am)
Minimum temperature yesterday: 71 °F (at 3:56 am)
Average temperature yesterday: 75 °F

High & Low Weather Summary for the Past Weeks

 TemperatureHumidityPressure
High92 °F (Jul 10, 2:56 pm)100% (Jul 2, 3:56 am)30.17 "Hg (Jul 2, 3:56 am)
Low61 °F (Jul 13, 7:07 am)43% (Jul 13, 6:56 pm)29.85 "Hg (Jul 11, 6:56 pm)
Average79 °F78%30.00 "Hg
* Reported Jul 1 1:56 pm — Jul 16 1:24 pm, Township of Washington. Weather by CustomWeather, © 2019

Note: Actual official high and low records may vary slightly from our data, if they occured in-between our weather recording intervals... More about our weather records

Advertising

Township of Washington Weather History for the Previous 24 Hours

Scroll right to see more
 ConditionsComfort  
Time TempWeatherWind HumidityBarometerVisibility
1:24 pm
Tue, Jul 16
75 °FLight rain. Broken clouds.9 mph94%30.00 "Hg10 mi
1:04 pm72 °FThundershowers. Cloudy.13 mph100%30.00 "Hg8 mi
11:56 am81 °FMostly cloudy.15 mph82%29.99 "Hg6 mi
10:56 am79 °FPartly sunny.13 mph84%29.99 "Hg10 mi
9:56 am77 °FPartly sunny.16 mph88%30.00 "Hg10 mi
9:20 am79 °FPartly sunny.17 mph84%30.02 "Hg10 mi
8:56 am78 °FMostly cloudy.15 mph82%30.00 "Hg10 mi
8:38 am77 °FMostly cloudy.14 mph83%30.01 "Hg10 mi
8:14 am77 °FMostly cloudy.10 mph83%30.02 "Hg10 mi
7:56 am75 °FOvercast.9 mph88%30.00 "Hg10 mi
7:16 am75 °FCloudy.9 mph89%30.01 "Hg10 mi
6:56 am75 °FMostly cloudy.9 mph85%29.99 "Hg10 mi
5:56 am75 °FPassing clouds.9 mph85%29.98 "Hg10 mi
4:56 am74 °FPassing clouds.8 mph88%29.98 "Hg10 mi
3:56 am74 °FOvercast.6 mph88%29.99 "Hg10 mi
2:56 am74 °FMostly cloudy.7 mph88%30.00 "Hg10 mi
1:56 am74 °FPassing clouds.8 mph88%30.01 "Hg10 mi
12:56 am74 °FPartly cloudy.7 mph88%30.01 "Hg10 mi
11:56 pm
Mon, Jul 15
74 °FClear.8 mph91%30.01 "Hg10 mi
10:56 pm74 °FClear.7 mph91%30.01 "Hg10 mi
9:56 pm75 °FClear.14 mph90%30.01 "Hg10 mi
8:56 pm73 °FSunny.8 mph97%30.02 "Hg10 mi
7:56 pm71 °FLight rain. Broken clouds.3 mph96%30.03 "Hg10 mi
6:56 pm73 °FLight rain. Mostly cloudy.9 mph88%30.07 "Hg10 mi
5:56 pm78 °FLight rain. Partly sunny.9 mph84%30.04 "Hg10 mi
4:56 pm77 °FLight rain. Overcast.5 mph90%30.07 "Hg10 mi
3:56 pm79 °FLight rain. Scattered clouds.7 mph84%30.10 "Hg10 mi
2:56 pm77 °FLight rain. Mostly cloudy.6 mph90%30.12 "Hg10 mi
Weather by CustomWeather, © 2019

See weather overview

LIVE PARTIAL LUNAR ECLIPSE – Watch the eclipse as it happens